Wind_Speed
7 7 8 8 9 9 8 7 7 7 8 9 10 11 11 10 9 9 9 10 9 7 7 9 11 11 8 6 5 8 11 4 5 1 4 2 3 6 8 6 10 10 11 7 6
6 7 6 7 8 10 10 9 8 8 8 9 10 11 11 10 11 10 12 10 9 7 6 7 7 13 11 8 11 5 11 5 1 2 5 3 8 7 10 10 9 8 8 7 7
5 7 8 9 10 11 12 11 9 9 8 8 10 11 10 11 11 10 13 11 10 9 10 12 10 8 15 17 7 6 3 2 1 5 4 4 8 8 8 11 9 6 6 1 3
6 7 8 8 8 10 12 12 11 10 9 8 7 8 7 8 10 9 13 11 12 12 12 12 11 11 13 12 7 5 5 2 2 7 6 5 6 8 9 8 8 5 3 3 6
7 7 8 8 8 7 10 12 11 10 11 10 10 8 8 10 10 12 11 13 13 12 13 12 9 9 14 11 7 2 5 3 1 10 6 6 1 7 12 8 7 5 5 4 7
9 8 9 8 7 7 8 10 12 11 12 12 11 11 10 12 11 11 11 12 12 13 13 11 8 8 13 10 8 7 13 7 7 13 13 15 17 11 12 14 10 6 5 5 9
10 9 9 9 8 7 8 10 11 12 13 13 13 12 13 11 14 13 11 13 13 14 11 8 7 7 4 6 7 14 16 10 8 14 13 15 8 8 10 13 8 8 7 3 10
12 10 10 10 10 9 8 9 11 12 12 13 14 15 12 13 13 13 12 15 14 13 10 6 6 8 7 6 7 14 9 10 10 12 9 6 5 16 11 14 13 10 8 9 9
13 13 11 11 11 10 9 8 9 10 11 12 15 17 13 13 14 11 14 15 15 14 11 11 11 8 6 7 14 19 19 13 13 7 11 16 10 15 19 20 23 6 18 22 6
16 15 14 13 13 11 10 9 9 10 10 11 15 15 14 14 11 12 14 14 14 15 13 12 10 8 14 12 11 17 18 10 7 8 14 14 14 19 25 26 28 20 22 23 22
18 17 16 16 15 13 11 11 9 8 6 7 12 13 12 12 11 11 14 15 14 15 17 14 11 13 17 14 16 16 15 7 7 10 13 13 19 15 19 19 20 28 29 17 17
19 17 17 17 16 13 12 12 11 11 9 10 9 13 14 11 9 11 12 13 14 15 16 13 13 16 11 13 14 17 13 5 4 5 8 15 24 9 16 20 22 27 27 17 18
18 17 17 17 15 14 14 14 11 12 11 12 12 11 11 11 10 10 11 13 15 15 15 17 20 16 13 11 14 13 13 7 6 3 6 9 7 15 11 15 20 21 26 19 12
17 15 16 16 16 15 14 14 13 12 12 13 12 12 11 12 10 11 11 13 15 16 14 15 18 18 10 13 14 13 6 7 8 5 6 7 11 13 13 13 14 19 19 19 12
20 18 18 16 17 16 18 16 14 12 12 13 12 11 11 13 12 12 12 13 15 14 16 17 20 16 8 9 19 14 12 5 2 2 4 5 0 10 13 12 13 15 19 19 17
23 19 19 16 18 15 15 14 15 14 10 9 12 12 11 9 12 14 15 16 16 14 15 14 13 11 11 16 22 10 3 5 4 4 7 3 6 12 14 14 14 15 17 18 18
23 21 19 18 18 17 16 13 15 16 17 14 10 10 12 12 11 13 15 14 10 10 11 7 8 6 5 13 19 12 15 8 3 8 20 12 12 17 12 9 14 14 14 16 18
22 22 19 20 19 18 16 14 15 20 19 20 14 10 10 11 11 15 17 16 15 15 19 18 16 14 7 1 10 25 15 5 5 16 20 11 20 10 6 9 4 12 13 12 13
23 24 21 21 20 18 15 15 21 22 20 20 15 11 9 11 14 15 15 16 17 15 13 17 16 14 8 4 19 17 11 1 9 14 16 20 23 12 11 5 4 9 11 12 12
18 25 23 22 20 19 16 20 27 23 17 15 16 15 3 9 13 12 11 13 14 17 18 17 12 11 10 11 21 16 13 6 10 8 18 15 23 11 15 7 5 8 10 12 10
15 18 23 23 21 19 15 22 25 20 23 24 23 18 10 3 11 11 7 11 15 15 16 17 11 13 15 13 17 19 18 14 14 8 13 17 14 17 24 26 5 3 9 11 12
15 19 21 23 22 19 20 23 22 17 17 21 20 17 12 14 6 3 11 16 17 14 15 17 12 18 15 11 14 19 20 17 17 10 10 15 17 16 17 9 6 4 5 9 13
13 17 20 23 24 22 28 30 24 13 22 32 17 21 23 22 22 11 10 19 23 24 17 14 14 23 21 22 24 25 21 20 20 24 17 17 21 14 13 12 8 10 3 4 15
11 13 16 20 24 27 32 31 30 19 25 12 23 25 27 27 28 25 27 23 19 16 16 16 18 22 22 22 28 28 26 25 25 27 25 26 30 19 16 12 5 13 4 16 20
8 8 10 19 24 30 34 35 33 28 25 31 27 29 36 35 32 32 31 32 33 28 26 26 25 31 31 28 25 20 27 33 27 30 33 32 35 33 28 18 13 15 21 22 21
13 13 14 18 27 33 37 39 36 33 29 31 33 32 36 29 28 34 32 34 37 30 28 27 26 30 31 32 30 28 20 25 36 35 40 43 39 36 30 18 21 20 22 23 22
14 16 19 18 26 32 38 38 39 32 30 31 33 36 36 33 28 34 36 33 33 33 27 20 24 25 28 30 31 32 27 29 31 30 38 43 39 30 25 26 25 25 26 27 25
Wind_Direction
292 278 267 261 259 260 260 256 247 252 242 234 228 219 219 218 207 210 198 190 188 198 205 208 199 191 192 161 148 106 130 67 25 200 58 44 306 308 315 321 303 313 308 305 279
298 288 275 259 256 254 253 253 249 240 245 235 227 222 219 213 214 217 194 189 195 180 196 189 191 178 148 194 163 68 72 47 359 88 70 49 294 24 337 336 327 326 309 10 340
294 288 276 274 266 256 251 249 246 237 232 236 230 224 220 219 217 204 194 188 194 179 188 180 174 185 186 173 168 185 113 53 314 36 29 286 321 351 315 313 336 5 331 290 247
286 294 288 284 276 257 244 241 240 235 226 225 218 206 195 193 200 190 194 194 199 199 205 213 197 219 236 216 241 174 55 144 177 84 53 68 16 353 354 346 343 333 276 252 245
277 286 290 288 280 264 246 236 233 235 223 224 221 214 197 205 202 195 191 196 207 208 216 218 216 216 224 223 218 141 179 172 157 98 75 75 46 341 354 334 13 333 323 259 220
267 278 285 285 282 267 245 229 227 231 226 220 226 226 221 219 202 197 192 208 209 215 220 215 217 240 275 239 187 121 99 131 100 93 94 68 23 335 334 343 2 334 345 210 205
261 268 279 282 277 263 246 233 231 231 222 220 223 227 223 207 207 203 209 215 217 220 221 223 233 253 277 191 175 126 115 102 102 105 102 77 319 308 339 351 344 333 329 10 242
257 257 268 273 272 264 252 239 232 226 222 228 223 223 219 216 212 209 208 227 215 220 217 215 218 243 233 191 134 114 130 138 120 106 99 72 12 337 356 326 327 335 311 293 310
252 252 253 261 264 261 249 235 230 226 233 231 218 218 206 216 211 219 219 211 213 212 209 195 189 220 175 153 133 125 115 97 66 35 11 7 5 355 353 326 276 333 313 301 249
252 250 250 253 256 254 243 232 232 233 242 232 218 217 205 222 210 213 217 206 205 202 193 192 193 185 113 147 133 125 109 109 124 54 7 329 352 6 9 11 349 357 333 310 264
254 253 250 249 250 247 241 228 223 221 237 240 214 202 204 210 216 213 211 201 196 199 182 190 193 163 143 150 142 125 125 135 66 36 353 343 346 354 22 16 4 18 347 317 168
254 254 252 247 248 243 238 224 214 211 193 199 211 200 187 193 231 216 205 200 190 192 183 188 183 158 172 160 141 145 125 90 44 11 352 358 318 356 24 26 21 33 39 68 83
248 250 251 246 248 237 232 226 204 207 198 190 190 207 208 203 210 224 198 193 183 186 190 180 184 182 179 127 138 153 147 57 60 17 33 29 324 46 23 31 31 43 53 55 72
241 246 250 245 244 234 232 226 198 200 192 200 197 197 204 211 214 207 190 182 186 181 198 192 198 193 177 133 151 171 122 79 349 313 119 59 92 29 36 52 36 46 51 60 61
241 251 250 242 238 230 228 225 193 193 197 195 194 199 205 202 209 201 191 186 189 201 202 198 207 192 160 154 175 159 149 185 233 352 300 239 60 83 43 68 64 57 59 54 54
234 241 237 235 233 231 233 231 199 181 167 181 188 200 206 194 206 203 191 185 189 198 207 205 202 170 176 182 183 150 164 217 152 298 291 172 182 128 83 52 56 56 62 59 62
231 232 228 226 225 219 217 216 203 185 169 164 174 193 206 207 211 204 204 192 184 183 178 168 152 143 173 192 192 190 147 148 197 303 323 267 217 201 102 75 41 60 55 73 67
228 221 221 221 220 217 218 196 191 193 184 183 159 180 186 203 186 194 196 191 191 185 184 168 143 131 98 27 205 145 145 131 327 302 311 306 200 138 112 110 55 72 77 67 66
223 215 220 219 216 211 205 188 190 200 189 174 161 160 191 194 169 180 180 184 192 192 203 172 159 153 146 192 190 151 137 218 314 289 290 314 315 317 113 86 108 57 51 69 79
222 216 216 214 210 206 197 183 194 196 200 132 135 122 212 218 171 160 164 187 186 193 202 191 181 147 150 153 161 177 179 195 258 319 314 317 317 269 199 231 221 60 44 42 39
210 211 209 209 205 198 184 188 197 199 204 147 125 123 134 110 111 115 128 170 180 202 214 205 183 150 171 156 190 192 191 196 213 286 290 282 314 307 314 289 233 232 12 8 14
203 203 203 205 203 194 178 183 192 205 182 163 159 155 157 218 209 101 152 165 176 192 210 190 156 199 188 178 182 189 193 209 237 235 272 294 301 296 316 154 155 279 14 358 358
193 204 202 202 200 190 182 189 185 184 184 183 184 169 197 200 209 193 205 187 196 205 218 210 194 193 195 206 209 202 220 229 253 256 251 265 280 292 304 328 3 272 337 17 341
192 194 194 200 196 187 188 196 187 187 196 202 189 196 215 209 207 192 205 221 209 215 235 244 244 236 233 229 221 211 214 236 244 247 250 262 263 269 262 295 277 17 273 321 326
172 163 188 194 188 188 187 192 193 195 193 202 202 212 213 210 207 200 211 222 225 228 215 230 232 234 248 255 228 253 217 236 246 253 248 255 263 267 274 303 291 307 315 308 304
175 173 185 200 191 188 190 197 202 211 209 218 208 222 212 224 233 209 207 213 225 229 210 211 223 230 244 257 263 250 247 235 234 245 261 261 265 273 282 292 305 302 299 294 286
192 191 197 204 195 192 200 206 206 208 216 217 212 216 231 227 221 214 214 227 233 234 225 219 231 237 241 254 264 271 265 248 248 270 261 256 260 278 284 295 303 299 294 290 290
Height
5892 5892 5891 5891 5892 5892 5892 5892 5891 5892 5892 5893 5893 5895 5896 5897 5899 5900 5900 5901 5901 5902 5902 5902 5904 5904 5904 5905 5910 5909 5911 5913 5913 5912 5911 5911 5911 5910 5910 5912 5912 5912 5911 5911 5909
5890 5889 5889 5889 5889 5889 5889 5889 5890 5890 5890 5891 5892 5893 5894 5896 5897 5898 5900 5900 5901 5901 5902 5901 5902 5904 5906 5908 5908 5909 5908 5911 5912 5912 5911 5910 5907 5910 5909 5909 5910 5910 5909 5910 5908
5888 5887 5887 5886 5886 5886 5886 5887 5888 5888 5889 5889 5890 5892 5893 5894 5895 5897 5898 5899 5900 5900 5900 5900 5901 5903 5907 5907 5906 5908 5908 5909 5909 5909 5912 5909 5908 5909 5910 5910 5910 5909 5907 5907 5905
5886 5885 5884 5883 5883 5883 5883 5884 5885 5886 5887 5888 5889 5890 5892 5893 5895 5895 5897 5899 5899 5899 5901 5900 5900 5902 5904 5905 5906 5907 5908 5908 5909 5910 5911 5910 5908 5908 5907 5907 5908 5906 5905 5905 5905
5884 5883 5882 5881 5880 5880 5880 5881 5882 5883 5885 5886 5888 5890 5891 5892 5893 5894 5896 5897 5897 5898 5900 5900 5901 5903 5902 5903 5903 5905 5907 5909 5911 5909 5911 5910 5909 5908 5906 5906 5906 5904 5903 5901 5903
5881 5880 5879 5878 5878 5877 5877 5878 5879 5881 5882 5884 5886 5888 5890 5890 5892 5893 5894 5896 5896 5898 5899 5900 5902 5903 5904 5903 5904 5905 5908 5910 5910 5909 5909 5909 5910 5907 5905 5903 5903 5903 5901 5899 5897
5878 5878 5877 5876 5875 5875 5875 5876 5876 5878 5879 5881 5883 5885 5887 5889 5889 5891 5894 5895 5895 5896 5898 5901 5902 5902 5902 5902 5903 5904 5909 5910 5911 5909 5908 5909 5907 5904 5903 5901 5899 5898 5899 5897 5897
5875 5874 5874 5873 5872 5872 5872 5873 5874 5875 5876 5878 5880 5882 5885 5886 5888 5890 5892 5895 5894 5896 5898 5900 5901 5902 5901 5903 5906 5907 5909 5911 5911 5910 5910 5909 5907 5902 5904 5900 5895 5897 5893 5893 5891
5871 5871 5870 5870 5870 5870 5870 5870 5871 5873 5874 5876 5878 5879 5883 5884 5887 5889 5890 5892 5893 5895 5897 5898 5900 5901 5902 5905 5908 5907 5909 5910 5910 5909 5909 5909 5908 5906 5903 5899 5885 5888 5889 5883 5884
5867 5866 5867 5867 5867 5867 5867 5868 5869 5871 5872 5873 5874 5878 5881 5882 5884 5885 5887 5889 5892 5894 5896 5897 5899 5901 5901 5907 5908 5908 5909 5909 5909 5911 5910 5909 5909 5910 5907 5901 5895 5885 5887 5883 5880
5862 5862 5863 5863 5863 5864 5864 5865 5868 5870 5870 5873 5873 5875 5878 5881 5882 5883 5885 5887 5890 5893 5894 5896 5898 5899 5903 5906 5907 5908 5908 5912 5912 5912 5914 5913 5910 5912 5912 5905 5896 5887 5883 5872 5875
5857 5857 5858 5859 5859 5860 5861 5862 5864 5866 5867 5868 5872 5873 5875 5878 5881 5882 5883 5886 5889 5892 5893 5896 5897 5900 5903 5904 5905 5906 5908 5910 5911 5912 5915 5916 5908 5911 5910 5906 5900 5893 5888 5881 5881
5851 5852 5853 5854 5855 5857 5857 5858 5861 5863 5865 5867 5869 5873 5875 5877 5878 5881 5882 5885 5887 5890 5892 5894 5896 5897 5901 5901 5902 5907 5908 5909 5910 5912 5915 5915 5910 5913 5910 5907 5903 5900 5895 5891 5890
5846 5847 5849 5850 5852 5853 5854 5855 5858 5860 5863 5866 5868 5870 5874 5875 5877 5879 5880 5883 5887 5889 5890 5892 5894 5895 5897 5898 5903 5905 5906 5907 5909 5912 5914 5914 5912 5913 5911 5908 5906 5905 5902 5898 5896
5840 5842 5844 5845 5847 5848 5850 5852 5856 5859 5862 5865 5866 5869 5870 5874 5876 5877 5879 5883 5885 5888 5890 5891 5892 5893 5894 5898 5902 5905 5906 5908 5909 5911 5912 5913 5914 5913 5912 5910 5909 5907 5905 5901 5899
5834 5836 5839 5841 5842 5846 5848 5852 5854 5860 5860 5863 5864 5866 5869 5871 5873 5875 5878 5880 5883 5886 5888 5890 5890 5891 5894 5898 5901 5904 5906 5906 5908 5909 5911 5911 5911 5911 5910 5911 5909 5907 5905 5903 5902
5827 5830 5834 5836 5838 5841 5843 5848 5854 5856 5858 5860 5862 5864 5866 5869 5871 5873 5876 5879 5883 5885 5888 5889 5890 5892 5894 5896 5900 5903 5905 5908 5909 5907 5905 5906 5908 5905 5905 5907 5910 5907 5905 5903 5901
5820 5825 5828 5831 5833 5838 5841 5846 5850 5851 5854 5856 5858 5861 5864 5867 5869 5871 5874 5877 5879 5882 5884 5885 5888 5889 5893 5896 5899 5901 5904 5907 5907 5905 5904 5903 5902 5902 5905 5904 5909 5911 5907 5904 5903
5814 5819 5823 5826 5830 5834 5839 5843 5845 5849 5851 5854 5856 5858 5862 5864 5867 5870 5872 5874 5877 5881 5885 5886 5888 5890 5890 5894 5899 5901 5904 5905 5904 5903 5903 5900 5898 5899 5893 5902 5906 5907 5906 5905 5905
5809 5813 5818 5823 5827 5832 5837 5840 5841 5848 5850 5853 5853 5856 5863 5865 5866 5867 5869 5873 5876 5880 5883 5886 5888 5890 5891 5893 5897 5900 5903 5904 5902 5903 5901 5899 5898 5897 5895 5901 5899 5902 5904 5902 5904
5806 5810 5814 5819 5824 5829 5835 5837 5838 5845 5847 5850 5850 5853 5858 5863 5865 5866 5870 5873 5876 5879 5882 5883 5886 5889 5892 5894 5897 5899 5898 5899 5898 5900 5900 5900 5900 5899 5895 5895 5903 5902 5898 5896 5899
5803 5806 5810 5815 5822 5826 5832 5834 5837 5841 5845 5842 5848 5851 5852 5860 5863 5866 5872 5874 5877 5878 5879 5882 5881 5886 5889 5890 5893 5894 5895 5895 5897 5898 5895 5896 5899 5900 5898 5894 5896 5900 5897 5897 5897
5801 5803 5808 5812 5818 5823 5827 5830 5835 5839 5840 5836 5845 5846 5849 5855 5859 5863 5870 5872 5873 5874 5877 5879 5880 5884 5886 5888 5889 5890 5891 5891 5893 5891 5890 5891 5892 5896 5898 5897 5896 5898 5896 5898 5897
5801 5804 5807 5810 5814 5819 5824 5828 5834 5837 5839 5838 5840 5840 5846 5850 5852 5857 5861 5865 5868 5871 5875 5878 5878 5879 5882 5883 5885 5887 5887 5889 5890 5886 5886 5885 5886 5889 5895 5897 5897 5894 5897 5897 5897
5800 5802 5806 5808 5811 5815 5820 5825 5828 5830 5833 5834 5838 5841 5840 5843 5850 5854 5858 5862 5864 5866 5870 5874 5874 5874 5875 5878 5884 5885 5886 5885 5887 5882 5882 5882 5881 5884 5889 5892 5892 5894 5894 5893 5895
5799 5800 5803 5805 5808 5813 5817 5818 5824 5827 5828 5830 5834 5835 5839 5844 5847 5849 5852 5858 5859 5863 5863 5866 5868 5870 5871 5873 5875 5881 5882 5880 5881 5878 5877 5877 5877 5881 5883 5886 5886 5887 5887 5887 5888
5798 5799 5800 5804 5807 5811 5814 5817 5820 5823 5826 5826 5829 5831 5833 5837 5840 5844 5848 5854 5857 5859 5861 5863 5866 5869 5870 5868 5868 5869 5872 5875 5876 5873 5873 5871 5875 5874 5876 5878 5880 5879 5878 5878 5878